Tracking 25711 objects as of 22-May-2022
HD Live streaming from Space Station
objects crossing your sky now

SL-12 DEB

Track SL-12 DEB now!
10-day predictions


NORAD ID: 27805
Int'l Code: 1992-047L
Perigee: 368.8 km
Apogee: 12,161.5 km
Inclination: 65.2 °
Period: 235.6 minutes
Semi major axis: 12636 km
RCS: 0.048 m2 (small)
Launch date: July 30, 1992
Source: Commonwealth of Independent States (former USSR) (CIS)
Launch site: TYURATAM MISSILE AND SPACE COMPLEX (TTMTR)

Note: This is SATELLITE DEBRIS
aabbcc
Your satellite tracking list
Your tracking list is empty




NASA's NSSDC Master Catalog

Two Line Element Set (TLE):
1 27805U 92047L   22141.26371446  .00019766  00000-0  63148-2 0  9990
2 27805  65.1500 101.4229 4666243 200.8572 131.2769  6.11194813427708
Source of the keplerian elements: AFSPC